This is the latest recevied weather packets stored in our database for station/object K1LVA. If no packets are shown the sender has not sent any weather packets the latest 10 day(s).
| Time | Temp. | Humidity | Pressure | Rain* | Wind** | Luminosity | Snow |
|---|---|---|---|---|---|---|---|
| 1777547312 | 17.78° C | 99% | 1010 hPa | 0 mm | - | 1 W/m² | - |
| 1777547009 | 17.78° C | 99% | 1009.9 hPa | 0 mm | - | 0 W/m² | - |
| 1777546707 | 17.78° C | 99% | 1009.6 hPa | 0 mm | - | 0 W/m² | - |
| 1777546403 | 18.33° C | 99% | 1009.7 hPa | 0 mm | - | 0 W/m² | - |
| 1777546100 | 18.33° C | 99% | 1009.5 hPa | 1.78 mm | - | 0 W/m² | - |
| 1777545796 | 18.33° C | 99% | 1009.5 hPa | 1.78 mm | - | 0 W/m² | - |
| 1777545493 | 18.33° C | 99% | 1009.8 hPa | 4.83 mm | - | 0 W/m² | - |
| 1777545190 | 18.89° C | 99% | 1009.6 hPa | 4.83 mm | - | 0 W/m² | - |
| 1777544888 | 18.33° C | 99% | 1009.9 hPa | 1.27 mm | - | 0 W/m² | - |
| 1777544583 | 18.33° C | 99% | 1010 hPa | 7.11 mm | - | 0 W/m² | - |
| 1777544280 | 18.89° C | 99% | 1009.5 hPa | 13.72 mm | - | 0 W/m² | - |
| 1777543977 | 18.89° C | 99% | 1009.1 hPa | 21.59 mm | - | 0 W/m² | - |
| 1777543674 | 18.89° C | 99% | 1009.1 hPa | 22.86 mm | - | 0 W/m² | - |
| 1777543369 | 18.89° C | 98% | 1008.8 hPa | 19.81 mm | - | 0 W/m² | - |
| 1777543065 | 19.44° C | 98% | 1008.4 hPa | 16.76 mm | - | 0 W/m² | - |
| 1777542762 | 19.44° C | 98% | 1008.4 hPa | 6.1 mm | - | 0 W/m² | - |
| 1777542459 | 19.44° C | 98% | 1008.7 hPa | 3.05 mm | - | 0 W/m² | - |
| 1777542155 | 19.44° C | 98% | 1008.1 hPa | 3.05 mm | - | 0 W/m² | - |
| 1777541852 | 19.44° C | 98% | 1007.6 hPa | 1.27 mm | - | 0 W/m² | - |
| 1777541549 | 20° C | 97% | 1007.7 hPa | 0 mm | - | 0 W/m² | - |
| 1777541246 | 20° C | 97% | 1007.7 hPa | 0 mm | - | 0 W/m² | - |
| 1777540942 | 20° C | 97% | 1007.3 hPa | 0 mm | - | 0 W/m² | - |
| 1777540640 | 20° C | 97% | 1006.9 hPa | 0 mm | - | 0 W/m² | - |
| 1777540337 | 20° C | 97% | 1006.6 hPa | 0 mm | - | 0 W/m² | - |
| 1777540033 | 20° C | 97% | 1006.9 hPa | 1.78 mm | - | 0 W/m² | - |
* Rain latest hour (hover to see other rain measurements)
** Current wind speed in m/s (hover to see current wind gust speed)